User: anonymous   Login
Location: Düngen
(52.0952°N, 10.0219°E)
Time: 19:51:12
(UTC+00:00)
Language:

Cosmos 468 Rocket - Orbit

View from above orbital plane
View from above orbital plane
View from above satellite
View from above satellite

Ground track
Ground track

The orbit is defined by the following mean orbital elements,

1 05707U          26129.47063322 +.00000000 +00000-0 +49544-4 0 00009
2 05707  74.0270 208.4941 0024406 206.6921 153.2980 14.40490942    06
Epoch (UTC): 09 May 2026 11:17:42
Eccentricity: 0.0024406
inclination: 74.0270°
perigee height: 739 km
apogee height: 774 km
right ascension of ascending node: 208.4941°
argument of perigee: 206.6921°
revolutions per day: 14.40490942
mean anomaly at epoch: 153.2980°

The dashed part of the orbit path shows where the satellite is in the earth's shadow,  

DLR